Simultaneous Nadir Overpasses (SNOs) Predictions

Prediction of SNOs between GOES-16 and NOAA-19 Satellite Orbit:

Table of predicted SNOs for the next 14.0 days since TLE Epoch: 6/25/2022
Index Date Time (GOES-16) GOES-16 Lat,Lon NOAA-19 Lat,Lon Distance(km) Time Diff (sec)
1 06/25/2022 12:44:46 0.04, -75.21 -0.31, -73.72 170.20 80
2 06/28/2022 01:02:47 -0.03, -75.20 -0.83, -78.61 390.05 80
3 06/29/2022 00:50:57 -0.03, -75.21 -0.15, -75.73 59.85 80
4 06/30/2022 00:41:46 -0.03, -75.21 0.53, -72.84 270.48 80
5 07/02/2022 13:02:14 0.02, -75.24 0.60, -77.69 279.62 80
6 07/03/2022 12:47:44 0.02, -75.26 -0.10, -74.81 51.48 80
7 07/04/2022 12:35:52 0.02, -75.27 -0.75, -71.91 382.70 80
8 07/07/2022 00:59:15 -0.02, -75.29 -0.37, -76.82 175.00 80
9 07/08/2022 00:44:44 -0.01, -75.31 0.32, -73.94 156.56 80
10 07/09/2022 00:32:53 -0.01, -75.32 0.96, -71.04 488.08 80
